Location: Hains Lake
(37.8540°N, 99.8578°W)
Time: 05:07:27
(UTC+00:00)

Tiros 1 despin weight - Pass Details

Date: 23 April 2021
Orbit: 593 x 642 km, 48.2° (Epoch: 07 May)

Event Time Altitude Azimuth Distance (km) Brightness Sun altitude
Rises 09:16:21 0° 210° (SSW) 2,922 - -27.3°
Reaches altitude 10° 09:18:50 10° 201° (SSW) 2,013 - -27.0°
Maximum altitude 09:23:01 34° 137° (SE) 1,044 - -26.4°
Exits shadow 09:23:32 33° 122° (ESE) 1,065 ? -26.3°
Drops below altitude 10° 09:27:10 10° 73° (ENE) 2,000 ? -25.8°
Sets 09:29:37 0° 64° (ENE) 2,901 ? -25.4°
